R/V Knorr Calliope CSV data file  (Time stamps are GMT)
Date, Time_GMT, Depth12, Depth35, Air_Temp, WXT5_Ta, WXT5_Pa, dec_lat, dec_lon, EDO_knt, GPS_COG, GPS_SOG, Gyro, IMET_BPR, IMET_SWR, WXT5_Ri, WXT5_Rc, HRH, WXT5_Ua, WXT5_Dm, WXT5_Sm, SBE45C, SBE45S, SBE45T, Salinity, SSCND, Fluorometer, SSTMP, SSV, Wnd_Dir, TWD_5, Wnd_Spd, TWS_5, HdChkSum=52
2008/03/25, 00:00:22, 226.80, 0.00, 1.53, 2.00, 1026.4, 44.2704500, -52.9057500, , 81.70, 12.70, 81.60, 1026.71, 0.00, 0.0, 27.52, 76.89, 81.1, 346, 11.3, 30.92700, 32.80250, 4.2644, 32.8025, 30.9270, 177.40, 3.1822, 1460.33, 92.40, 46.0, 3.16, 6.1, 52
2008/03/25, 00:01:22, 218.70, 0.00, 1.51, 2.00, 1026.4, 44.2708680, -52.9009580, , 86.20, 11.82, 82.20, 1027.49, 0.10, 0.0, 27.52, 76.94, 81.0, 343, 12.0, 30.94590, 32.79170, 4.2975, 32.7917, 30.9459, 168.30, 3.1783, 1460.31, 82.40, 45.3, 3.48, 6.2, 52
2008/03/25, 00:02:22, 211.10, 0.00, 1.59, 2.00, 1026.5, 44.2713480, -52.8962220, , 81.00, 11.98, 82.70, 1027.05, 0.30, 0.0, 27.52, 77.07, 81.0, 344, 12.0, 30.96400, 32.76330, 4.3473, 32.7633, 30.9640, 154.50, 3.1704, 1460.24, 87.90, 42.0, 3.51, 6.8, 52
2008/03/25, 00:03:22, 205.50, 0.00, 1.45, 2.00, 1026.5, 44.2717870, -52.8914370, , 80.90, 12.59, 81.20, 1027.00, 0.00, 0.0, 27.52, 77.27, 81.1, 343, 11.7, 30.95250, 32.74990, 4.3472, 32.7499, 30.9525, 150.80, 3.1657, 1460.20, 81.50, 39.4, 2.97, 5.8, 52
2008/03/25, 00:04:22, 200.10, 0.00, 1.56, 2.00, 1026.3, 44.2722900, -52.8866580, , 84.20, 11.29, 82.20, 1027.24, 0.10, 0.0, 27.52, 77.22, 81.3, 343, 11.6, 30.94730, 32.75520, 4.3358, 32.7552, 30.9473, 150.30, 3.1601, 1460.17, 83.70, 40.6, 3.63, 6.1, 52
2008/03/25, 00:05:22, 192.70, 0.00, 1.59, 2.00, 1026.4, 44.2727220, -52.8818480, , 84.80, 13.33, 81.00, 1027.06, 0.10, 0.0, 27.52, 77.42, 81.4, 347, 12.4, 30.98110, 32.75930, 4.3714, 32.7593, 30.9811, 157.90, 3.1517, 1460.14, 73.80, 49.1, 2.59, 5.8, 52
2008/03/25, 00:06:22, 186.90, 0.00, 1.51, 2.00, 1025.8, 44.2731630, -52.8770580, , 87.10, 12.64, 83.00, 1026.71, 0.00, 0.0, 27.52, 77.37, 81.3, 342, 11.6, 30.99580, 32.75620, 4.3919, 32.7562, 30.9958, 156.40, 3.1416, 1460.10, 77.40, 40.5, 3.07, 5.7, 52
2008/03/25, 00:07:22, 181.90, 0.00, 1.40, 2.00, 1026.2, 44.2735900, -52.8722530, , 82.50, 12.44, 81.40, 1027.14, 0.00, 0.0, 27.52, 77.47, 81.5, 342, 11.8, 30.97330, 32.75440, 4.3672, 32.7544, 30.9733, 153.60, 3.1398, 1460.09, 75.20, 42.7, 2.79, 6.4, 52
2008/03/25, 00:08:22, 177.10, 0.00, 1.59, 2.00, 1026.6, 44.2740270, -52.8674380, , 87.00, 12.12, 81.10, 1026.86, 0.00, 0.0, 27.52, 77.64, 81.8, 350, 11.9, 30.94800, 32.75550, 4.3362, 32.7555, 30.9480, 156.00, 3.1476, 1460.12, 73.90, 59.8, 3.04, 5.4, 52
2008/03/25, 00:09:22, 169.90, 0.00, 1.45, 2.00, 1026.4, 44.2744900, -52.8626270, , 88.20, 12.06, 81.50, 1027.03, 0.20, 0.0, 27.52, 76.92, 80.8, 349, 11.5, 30.94080, 32.75570, 4.3276, 32.7557, 30.9408, 156.40, 3.1593, 1460.17, 88.50, 56.7, 2.98, 5.4, 52
2008/03/25, 00:10:22, 164.50, 0.00, 1.51, 2.00, 1026.5, 44.2749550, -52.8578280, , 86.90, 12.09, 82.40, 1027.10, 0.00, 0.0, 27.52, 76.99, 80.9, 347, 11.5, 30.94340, 32.75720, 4.3292, 32.7572, 30.9434, 160.40, 3.1783, 1460.26, 90.50, 57.2, 3.07, 5.5, 52
2008/03/25, 00:11:22, 162.50, 0.00, 1.40, 2.00, 1026.2, 44.2754380, -52.8530420, , 78.00, 12.84, 82.90, 1027.09, -0.10, 0.0, 27.52, 76.27, 80.0, 354, 12.7, 30.94490, 32.75680, 4.3313, 32.7568, 30.9449, 162.80, 3.1944, 1460.33, 111.50, 61.7, 3.51, 6.3, 52
2008/03/25, 00:12:22, 157.30, 0.00, 1.56, 2.00, 1026.0, 44.2758820, -52.8482520, , 83.70, 11.74, 81.40, 1027.32, 0.00, 0.0, 27.52, 76.47, 80.0, 350, 10.9, 30.91980, 32.75900, 4.2996, 32.7590, 30.9198, 158.20, 3.2140, 1460.41, 97.80, 61.6, 3.22, 4.8, 52
2008/03/25, 00:13:22, 154.30, 0.00, 1.53, 2.10, 1026.4, 44.2763430, -52.8434370, , 77.60, 12.43, 81.80, 1027.09, 0.10, 0.0, 27.52, 76.31, 80.0, 348, 12.0, 30.92180, 32.76570, 4.2952, 32.7657, 30.9218, 162.80, 3.2301, 1460.49, 117.80, 49.1, 3.25, 6.5, 52
2008/03/25, 00:14:21, 150.00, 0.00, 1.59, 2.10, 1026.1, 44.2768250, -52.8386120, , 78.40, 12.76, 81.30, 1026.98, -0.20, 0.0, 27.52, 76.01, 79.8, 353, 12.7, 30.95260, 32.77110, 4.3260, 32.7711, 30.9526, 160.00, 3.2366, 1460.52, 105.50, 63.4, 2.84, 6.4, 52
2008/03/25, 00:15:22, 145.40, 0.00, 1.59, 2.10, 1026.4, 44.2773230, -52.8337950, , 75.00, 12.21, 81.80, 1027.09, -0.20, 0.0, 27.52, 76.19, 79.5, 347, 11.9, 30.97940, 32.78570, 4.3429, 32.7857, 30.9794, 163.40, 3.2482, 1460.59, 113.90, 43.2, 3.65, 6.0, 52
2008/03/25, 00:16:21, 141.80, 0.00, 1.65, 2.10, 1026.2, 44.2778680, -52.8290380, , 86.30, 12.82, 81.60, 1026.52, -0.10, 0.0, 27.52, 76.01, 79.5, 354, 12.0, 30.99390, 32.77990, 4.3658, 32.7799, 30.9939, 152.70, 3.2558, 1460.62, 82.30, 68.4, 2.82, 5.6, 52
2008/03/25, 00:17:21, 138.60, 0.00, 1.73, 2.10, 1026.1, 44.2783850, -52.8243180, , 87.20, 12.35, 81.10, 1026.69, 0.10, 0.0, 27.52, 76.21, 79.7, 349, 12.2, 31.00380, 32.75660, 4.4008, 32.7566, 31.0038, 144.10, 3.2693, 1460.65, 90.40, 58.3, 2.90, 6.2, 52
2008/03/25, 00:18:22, 136.60, 0.00, 1.62, 2.10, 1026.3, 44.2788770, -52.8194630, , 79.50, 12.62, 82.90, 1026.84, -0.10, 0.0, 27.52, 75.86, 79.3, 348, 12.0, 31.01010, 32.74170, 4.4232, 32.7417, 31.0101, 144.40, 3.2858, 1460.70, 111.90, 50.0, 3.26, 5.8, 52
2008/03/25, 00:19:22, 133.70, 0.00, 1.56, 2.10, 1026.3, 44.2793450, -52.8147720, , 85.30, 12.72, 84.10, 1026.63, 0.00, 0.0, 27.52, 75.81, 79.3, 349, 11.7, 31.03180, 32.73990, 4.4506, 32.7399, 31.0318, 145.40, 3.2830, 1460.68, 99.50, 60.8, 3.06, 5.1, 52
2008/03/25, 00:20:22, 132.40, 0.00, 1.70, 2.10, 1026.2, 44.2798200, -52.8099320, , 85.20, 13.72, 82.00, 1026.46, 0.10, 0.0, 27.52, 75.99, 79.1, 347, 12.1, 31.02910, 32.74340, 4.4438, 32.7434, 31.0291, 155.50, 3.2681, 1460.62, 86.00, 55.6, 2.42, 6.0, 52
2008/03/25, 00:21:22, 128.00, 0.00, 1.53, 2.10, 1026.0, 44.2803480, -52.8051230, , 83.20, 12.60, 82.30, 1026.72, -0.20, 0.0, 27.52, 75.81, 79.4, 350, 12.0, 31.01850, 32.73570, 4.4392, 32.7357, 31.0185, 152.10, 3.2503, 1460.54, 98.00, 57.6, 3.13, 5.6, 52
2008/03/25, 00:22:22, 126.50, 0.00, 1.73, 2.20, 1026.1, 44.2808550, -52.8002520, , 78.00, 12.71, 83.60, 1026.63, -0.10, 0.0, 27.52, 75.86, 79.2, 354, 12.6, 31.03470, 32.73340, 4.4605, 32.7334, 31.0347, 156.40, 3.2374, 1460.47, 117.40, 67.2, 3.27, 6.2, 52
2008/03/25, 00:23:22, 124.90, 0.00, 1.65, 2.20, 1026.1, 44.2813150, -52.7953200, , 81.40, 12.22, 83.10, 1026.69, -0.20, 0.0, 27.52, 75.79, 78.9, 350, 12.1, 31.04270, 32.73140, 4.4719, 32.7314, 31.0427, 155.50, 3.2154, 1460.38, 111.90, 55.4, 3.44, 5.5, 52
2008/03/25, 00:24:22, 121.70, 0.00, 1.65, 2.20, 1025.9, 44.2818370, -52.7904000, , 86.20, 12.63, 83.60, 1026.91, 0.00, 0.0, 27.52, 75.71, 79.0, 352, 12.5, 31.04840, 32.72240, 4.4878, 32.7224, 31.0484, 158.20, 3.1875, 1460.25, 101.70, 65.7, 3.02, 6.4, 52
2008/03/25, 00:25:22, 118.60, 0.00, 1.65, 2.20, 1026.1, 44.2823470, -52.7854920, , 82.80, 13.77, 80.80, 1026.97, -0.20, 0.0, 27.52, 75.59, 79.0, 349, 11.8, 31.04150, 32.72340, 4.4787, 32.7234, 31.0415, 159.40, 3.1584, 1460.13, 103.30, 57.5, 2.57, 5.5, 52
2008/03/25, 00:26:22, 118.30, 0.00, 1.73, 2.20, 1026.2, 44.2828400, -52.7806300, , 83.50, 13.58, 80.80, 1027.11, 0.00, 0.0, 27.52, 75.61, 78.9, 349, 11.9, 31.01350, 32.72950, 4.4395, 32.7295, 31.0135, 168.30, 3.1216, 1459.97, 102.90, 53.4, 2.52, 6.0, 52
2008/03/25, 00:27:22, 114.60, 0.00, 1.65, 2.20, 1026.0, 44.2833750, -52.7758000, , 84.00, 11.94, 81.50, 1027.01, -0.10, 0.0, 27.52, 75.69, 78.9, 350, 11.7, 30.99210, 32.72860, 4.4153, 32.7286, 30.9921, 167.60, 3.0966, 1459.87, 100.40, 68.8, 3.47, 5.0, 52
2008/03/25, 00:28:22, 112.60, 0.00, 1.67, 2.20, 1026.1, 44.2839130, -52.7709530, , 78.70, 12.51, 83.30, 1026.84, -0.10, 0.0, 27.52, 75.38, 78.6, 349, 12.4, 30.97070, 32.73220, 4.3864, 32.7322, 30.9707, 162.80, 3.0542, 1459.69, 114.80, 54.8, 3.52, 5.8, 52
2008/03/25, 00:29:21, 112.50, 0.00, 1.70, 2.20, 1026.3, 44.2844120, -52.7660450, , 81.30, 13.33, 82.80, 1027.37, 0.00, 0.0, 27.52, 75.71, 78.5, 349, 11.6, 30.96340, 32.73720, 4.3727, 32.7372, 30.9634, 171.00, 3.0468, 1459.67, 112.20, 55.6, 2.79, 5.5, 52
2008/03/25, 00:30:22, 110.60, 0.00, 1.73, 2.20, 1026.2, 44.2850150, -52.7611930, , 78.10, 12.88, 83.60, 1027.08, 0.10, 0.0, 27.52, 75.64, 79.1, 347, 11.6, 30.91710, 32.74450, 4.3109, 32.7445, 30.9171, 181.40, 3.0517, 1459.70, 113.70, 48.5, 3.08, 5.2, 52
2008/03/25, 00:31:22, 108.40, 0.00, 1.76, 2.20, 1026.2, 44.2855430, -52.7563020, , 82.30, 12.40, 82.20, 1026.86, 0.00, 0.0, 27.52, 75.38, 78.7, 350, 12.1, 30.86180, 32.72140, 4.2690, 32.7214, 30.8618, 184.40, 3.0670, 1459.74, 100.00, 57.4, 2.90, 5.8, 52
2008/03/25, 00:32:22, 107.10, 0.00, 1.78, 2.20, 1026.2, 44.2860500, -52.7514570, , 81.50, 13.35, 82.50, 1027.04, -0.20, 0.0, 27.52, 75.36, 78.5, 346, 10.7, 30.81660, 32.69590, 4.2414, 32.6959, 30.8166, 195.40, 3.0753, 1459.75, 111.80, 40.9, 2.48, 4.8, 52
2008/03/25, 00:33:22, 105.90, 0.00, 1.76, 2.20, 1026.0, 44.2865930, -52.7466400, , 83.30, 13.14, 82.90, 1027.02, -0.10, 0.0, 27.52, 75.23, 78.3, 345, 10.7, 30.76380, 32.68180, 4.1933, 32.6818, 30.7638, 192.70, 3.0844, 1459.76, 109.60, 44.4, 2.17, 5.0, 52
2008/03/25, 00:34:22, 105.80, 0.00, 1.73, 2.20, 1026.3, 44.2871350, -52.7417930, , 80.10, 11.96, 81.80, 1026.48, 0.10, 0.0, 27.52, 75.21, 78.3, 350, 11.7, 30.70800, 32.67240, 4.1368, 32.6724, 30.7080, 200.00, 3.0948, 1459.79, 99.70, 59.9, 2.74, 5.0, 52
2008/03/25, 00:35:22, 104.50, 0.00, 1.81, 2.20, 1026.1, 44.2876900, -52.7369070, , 73.70, 13.57, 82.30, 1026.81, -0.10, 0.0, 27.52, 74.91, 78.1, 348, 10.9, 30.71400, 32.66430, 4.1520, 32.6643, 30.7140, 184.10, 3.0975, 1459.80, 134.60, 42.2, 2.94, 5.4, 52
2008/03/25, 00:36:22, 209.30, 0.00, 1.81, 2.20, 1026.5, 44.2881550, -52.7319950, , 83.80, 12.07, 80.50, 1027.13, -0.10, 0.0, 27.52, 74.93, 77.8, 347, 10.9, 30.74280, 32.65260, 4.1978, 32.6526, 30.7428, 183.80, 3.0972, 1459.78, 98.70, 48.2, 2.79, 4.7, 52
2008/03/25, 00:37:22, 102.90, 0.00, 1.76, 2.20, 1026.2, 44.2886770, -52.7270370, , 82.70, 13.09, 80.10, 1026.68, 0.00, 0.0, 27.52, 74.98, 78.3, 348, 11.8, 30.77320, 32.64150, 4.2448, 32.6415, 30.7732, 179.90, 3.0959, 1459.75, 91.80, 51.9, 2.03, 5.4, 52
2008/03/25, 00:38:21, 199.80, 0.00, 1.73, 2.20, 1026.2, 44.2892070, -52.7221000, , 83.40, 12.62, 84.40, 1027.35, -0.10, 0.0, 27.52, 74.53, 77.6, 350, 11.4, 30.77790, 32.63030, 4.2617, 32.6303, 30.7779, 182.90, 3.0949, 1459.74, 108.80, 52.1, 2.60, 5.3, 52
2008/03/25, 00:39:21, 102.20, 0.00, 1.78, 2.20, 1026.3, 44.2896550, -52.7171270, , 86.30, 13.08, 82.40, 1027.09, 0.00, 0.0, 27.52, 74.68, 77.6, 349, 11.2, 30.77980, 32.62760, 4.2666, 32.6276, 30.7798, 187.50, 3.0907, 1459.71, 101.20, 55.6, 2.08, 4.1, 52
2008/03/25, 00:40:22, 102.20, 0.00, 1.76, 2.20, 1026.6, 44.2901570, -52.7121480, , 81.00, 13.35, 82.20, 1027.50, 0.10, 0.0, 27.52, 74.53, 77.4, 349, 11.3, 30.78200, 32.62240, 4.2745, 32.6224, 30.7820, 191.80, 3.0901, 1459.71, 118.80, 48.1, 2.23, 4.8, 52
2008/03/25, 00:41:22, 103.40, 0.00, 1.70, 2.20, 1026.3, 44.2906930, -52.7072250, , 85.00, 13.17, 83.90, 1027.31, 0.10, 0.0, 27.52, 74.30, 77.1, 346, 11.0, 30.77970, 32.61920, 4.2751, 32.6192, 30.7797, 191.80, 3.0967, 1459.73, 101.10, 47.1, 1.96, 5.0, 52
2008/03/25, 00:42:22, 101.90, 0.00, 1.73, 2.30, 1026.3, 44.2912070, -52.7021170, , 82.50, 13.36, 82.20, 1027.11, 0.20, 0.0, 27.52, 74.55, 77.4, 345, 10.7, 30.77020, 32.61700, 4.2661, 32.6170, 30.7702, 180.20, 3.1039, 1459.76, 101.80, 44.3, 1.82, 4.6, 52
2008/03/25, 00:43:22, 197.30, 0.00, 1.73, 2.30, 1026.5, 44.2917350, -52.6970800, , 82.40, 13.62, 82.20, 1027.04, 0.10, 0.0, 27.52, 74.27, 77.1, 342, 10.5, 30.76070, 32.61440, 4.2574, 32.6144, 30.7607, 177.10, 3.1031, 1459.75, 93.10, 37.1, 1.51, 4.6, 52
2008/03/25, 00:44:22, 102.40, 0.00, 1.70, 2.30, 1026.8, 44.2922580, -52.6920820, , 80.40, 12.60, 80.40, 1027.28, -0.10, 0.0, 27.52, 74.20, 77.0, 343, 11.0, 30.76500, 32.61510, 4.2618, 32.6151, 30.7650, 171.00, 3.0981, 1459.73, 82.20, 40.7, 1.92, 4.7, 52
2008/03/25, 00:45:22, 101.60, 0.00, 1.73, 2.20, 1026.4, 44.2928120, -52.6870380, , 82.80, 13.59, 81.40, 1027.01, 0.20, 0.0, 27.52, 74.00, 76.6, 343, 9.8, 30.75740, 32.61300, 4.2549, 32.6130, 30.7574, 167.60, 3.0883, 1459.68, 85.80, 31.0, 1.40, 3.7, 52
2008/03/25, 00:46:22, 101.40, 0.00, 1.87, 2.30, 1026.3, 44.2933530, -52.6820180, , 79.90, 13.19, 81.50, 1027.42, 0.10, 0.0, 27.52, 74.27, 77.0, 347, 10.7, 30.74890, 32.61460, 4.2433, 32.6146, 30.7489, 174.00, 3.0774, 1459.64, 103.10, 38.2, 1.40, 5.2, 52
2008/03/25, 00:47:22, 103.10, 0.00, 1.67, 2.30, 1026.6, 44.2938480, -52.6770520, , 84.90, 13.37, 83.00, 1027.42, 0.30, 0.0, 27.52, 74.10, 77.0, 344, 10.1, 30.76910, 32.61500, 4.2667, 32.6150, 30.7691, 172.20, 3.0682, 1459.60, 99.50, 43.5, 1.43, 4.2, 52
2008/03/25, 00:48:22, 103.80, 0.00, 1.84, 2.30, 1026.5, 44.2943520, -52.6720150, , 86.90, 13.62, 82.80, 1027.41, 0.10, 0.0, 27.52, 74.35, 76.9, 344, 10.4, 30.78650, 32.61300, 4.2894, 32.6130, 30.7865, 172.00, 3.0627, 1459.58, 93.10, 42.7, 1.20, 3.6, 52
2008/03/25, 00:49:22, 106.10, 0.00, 1.90, 2.30, 1027.1, 44.2948130, -52.6669880, , 88.30, 13.02, 82.90, 1027.60, 0.30, 0.0, 27.52, 74.22, 76.9, 345, 10.1, 30.77910, 32.60840, 4.2852, 32.6084, 30.7791, 171.60, 3.0562, 1459.54, 74.80, 36.6, 1.54, 4.2, 52
2008/03/25, 00:50:21, 103.60, 0.00, 1.87, 2.30, 1026.8, 44.2952780, -52.6619450, , 84.60, 13.48, 81.20, 1027.49, 0.20, 0.0, 27.52, 74.07, 76.9, 345, 10.7, 30.76620, 32.60950, 4.2689, 32.6095, 30.7662, 171.30, 3.0488, 1459.51, 90.50, 36.2, 1.25, 4.4, 52
2008/03/25, 00:51:22, 103.50, 0.00, 1.81, 2.30, 1026.6, 44.2957820, -52.6569300, , 85.00, 12.74, 83.40, 1027.42, 0.10, 0.0, 27.52, 74.00, 77.0, 352, 10.8, 30.75070, 32.60710, 4.2529, 32.6071, 30.7507, 173.70, 3.0472, 1459.50, 114.60, 58.2, 1.89, 4.2, 52
2008/03/25, 00:52:22, 105.60, 0.00, 1.87, 2.30, 1026.6, 44.2962120, -52.6518630, , 80.70, 13.01, 82.60, 1027.10, 0.30, 0.0, 27.52, 73.97, 76.9, 353, 10.6, 30.73550, 32.60690, 4.2351, 32.6069, 30.7355, 174.40, 3.0572, 1459.54, 134.90, 58.2, 2.42, 4.6, 52
2008/03/25, 00:53:22, 105.90, 0.00, 1.78, 2.30, 1026.4, 44.2966580, -52.6468080, , 82.30, 13.75, 81.60, 1027.28, 0.10, 0.0, 27.52, 73.67, 76.5, 348, 10.7, 30.72270, 32.60720, 4.2198, 32.6072, 30.7227, 173.20, 3.0665, 1459.58, 134.70, 47.6, 1.98, 4.8, 52
2008/03/25, 00:54:22, 102.90, 0.00, 1.81, 2.30, 1026.5, 44.2971320, -52.6417550, , 84.30, 11.80, 82.30, 1027.25, 0.00, 0.0, 27.52, 73.59, 76.1, 350, 11.6, 30.72340, 32.60970, 4.2180, 32.6097, 30.7234, 172.00, 3.0623, 1459.57, 109.10, 52.4, 2.67, 5.0, 52
2008/03/25, 00:55:22, 197.50, 0.00, 1.84, 2.30, 1026.2, 44.2975750, -52.6367370, , 85.40, 12.51, 82.40, 1027.24, 0.10, 0.0, 27.52, 73.29, 76.3, 350, 11.4, 30.71910, 32.60980, 4.2128, 32.6098, 30.7191, 170.40, 3.0671, 1459.59, 110.10, 57.0, 2.24, 5.5, 52
2008/03/25, 00:56:22, 100.30, 0.00, 1.81, 2.30, 1026.5, 44.2980320, -52.6317220, , 86.50, 12.91, 82.70, 1027.38, -0.30, 0.0, 27.52, 73.41, 76.1, 351, 11.8, 30.71390, 32.61110, 4.2054, 32.6111, 30.7139, 179.60, 3.0887, 1459.68, 108.70, 52.9, 2.01, 5.3, 52
2008/03/25, 00:57:22, 101.40, 0.00, 1.90, 2.30, 1026.2, 44.2984900, -52.6267130, , 84.10, 12.71, 83.50, 1027.08, 0.00, 0.0, 27.52, 72.93, 75.4, 350, 11.5, 30.71840, 32.61380, 4.2080, 32.6138, 30.7184, 168.30, 3.1102, 1459.78, 119.00, 60.2, 2.66, 4.6, 52
2008/03/25, 00:58:22, 102.20, 0.00, 1.73, 2.30, 1026.5, 44.2988920, -52.6217450, , 87.20, 11.45, 82.50, 1026.97, 0.10, 0.0, 27.52, 72.98, 75.6, 353, 11.6, 30.74870, 32.62270, 4.2349, 32.6227, 30.7487, 164.60, 3.1293, 1459.87, 105.90, 67.5, 2.88, 5.6, 52
2008/03/25, 00:59:22, 102.20, 0.00, 1.78, 2.30, 1026.4, 44.2992970, -52.6168120, , 88.60, 12.62, 81.00, 1027.12, 0.30, 0.0, 27.52, 72.70, 75.2, 351, 10.9, 30.78010, 32.62700, 4.2677, 32.6270, 30.7801, 173.70, 3.1454, 1459.95, 98.80, 57.7, 2.11, 4.2, 52
2008/03/25, 01:00:21, 102.90, 0.00, 1.87, 2.30, 1026.3, 44.2997480, -52.6118480, , 79.80, 13.74, 82.60, 1027.03, 0.20, 0.0, 27.52, 72.78, 75.4, 350, 11.2, 30.78450, 32.62600, 4.2738, 32.6260, 30.7845, 183.60, 3.1410, 1459.93, 134.30, 47.3, 2.18, 4.9, 52
2008/03/25, 01:01:22, 100.20, 0.00, 1.78, 2.30, 1026.1, 44.3002100, -52.6068470, , 80.90, 13.15, 83.10, 1026.98, 0.00, 0.0, 27.52, 73.31, 75.3, 351, 11.4, 30.77540, 32.64980, 4.2391, 32.6498, 30.7754, 191.80, 3.1312, 1459.91, 127.90, 49.8, 2.30, 5.5, 52
2008/03/25, 01:02:22, 102.40, 0.00, 1.78, 2.30, 1026.1, 44.3006250, -52.6018300, , 84.20, 12.78, 82.00, 1027.09, 0.20, 0.0, 27.52, 73.16, 75.9, 349, 11.1, 30.81920, 32.67450, 4.2660, 32.6745, 30.8192, 191.50, 3.1248, 1459.91, 109.10, 50.0, 2.26, 5.0, 52
2008/03/25, 01:03:22, 101.00, 0.00, 1.84, 2.30, 1026.4, 44.3010950, -52.5967920, , 81.80, 13.52, 81.30, 1027.23, -0.10, 0.0, 27.52, 72.98, 75.8, 352, 10.1, 30.87410, 32.68000, 4.3252, 32.6800, 30.8741, 188.40, 3.1092, 1459.86, 125.50, 48.9, 2.02, 3.9, 52
2008/03/25, 01:04:22, 192.90, 0.00, 1.81, 2.30, 1026.3, 44.3015500, -52.5917930, , 81.60, 14.03, 80.80, 1027.40, 0.20, 0.0, 27.52, 72.75, 75.4, 351, 10.9, 30.91180, 32.69120, 4.3583, 32.6912, 30.9118, 175.90, 3.0993, 1459.83, 140.90, 52.1, 1.77, 4.9, 52
2008/03/25, 01:05:22, 0.00, 0.00, 1.81, 2.30, 1026.9, 44.3020030, -52.5867200, , 77.30, 13.37, 81.80, 1026.66, 0.10, 0.0, 27.52, 72.75, 75.1, 353, 11.3, 30.94180, 32.70710, 4.3776, 32.7071, 30.9418, 166.10, 3.0899, 1459.81, 144.80, 60.5, 2.76, 5.2, 52
2008/03/25, 01:06:22, 100.90, 0.00, 1.76, 2.30, 1026.1, 44.3023780, -52.5817820, , 87.20, 12.65, 82.60, 1027.36, -0.20, 0.0, 27.52, 72.47, 74.6, 352, 10.6, 30.91640, 32.71440, 4.3405, 32.7144, 30.9164, 167.30, 3.0797, 1459.78, 127.90, 57.9, 2.18, 3.9, 52
2008/03/25, 01:07:22, 193.80, 0.00, 1.78, 2.30, 1026.1, 44.3028130, -52.5767320, , 84.90, 13.44, 83.10, 1026.98, 0.10, 0.0, 27.52, 72.47, 74.8, 353, 10.9, 30.89250, 32.72230, 4.3042, 32.7223, 30.8925, 164.30, 3.0655, 1459.73, 130.60, 56.7, 1.71, 3.9, 52
2008/03/25, 01:08:22, 101.50, 0.00, 1.76, 2.30, 1026.5, 44.3032330, -52.5716950, , 86.90, 13.04, 82.40, 1027.11, 0.20, 0.0, 27.52, 72.45, 74.7, 352, 10.9, 30.88420, 32.73000, 4.2868, 32.7300, 30.8842, 165.80, 3.0533, 1459.69, 120.50, 52.9, 1.96, 4.0, 52
2008/03/25, 01:09:22, 190.70, 0.00, 1.81, 2.30, 1026.2, 44.3036720, -52.5667050, , 84.40, 12.32, 81.00, 1026.99, 0.00, 0.0, 27.52, 72.09, 74.6, 351, 10.9, 30.86780, 32.73210, 4.2653, 32.7321, 30.8678, 169.50, 3.0399, 1459.63, 114.30, 56.2, 2.33, 4.1, 52
2008/03/25, 01:10:22, 193.70, 0.00, 1.81, 2.30, 1026.1, 44.3041320, -52.5617300, , 79.70, 12.68, 81.20, 1026.96, -0.10, 0.0, 27.52, 72.07, 74.3, 357, 11.7, 30.86040, 32.73420, 4.2546, 32.7342, 30.8604, 168.00, 3.0303, 1459.59, 134.90, 59.6, 3.04, 5.0, 52
2008/03/25, 01:11:22, 194.70, 0.00, 1.87, 2.30, 1026.1, 44.3046300, -52.5568400, , 79.30, 12.48, 80.70, 1026.81, 0.20, 0.0, 27.52, 72.02, 74.4, 355, 11.8, 30.85670, 32.73690, 4.2475, 32.7369, 30.8567, 164.00, 3.0342, 1459.61, 135.10, 63.1, 3.27, 5.2, 52
2008/03/25, 01:12:22, 192.90, 0.00, 1.84, 2.40, 1026.0, 44.3051380, -52.5520300, , 81.20, 13.27, 81.50, 1026.68, 0.10, 0.0, 27.52, 72.12, 74.6, 352, 10.3, 30.83900, 32.73820, 4.2253, 32.7382, 30.8390, 164.00, 3.0588, 1459.72, 135.40, 54.9, 2.42, 4.2, 52
2008/03/25, 01:13:22, 194.80, 0.00, 1.87, 2.40, 1026.0, 44.3056930, -52.5472850, , 80.30, 12.07, 83.20, 1026.67, 0.10, 0.0, 27.52, 72.35, 75.1, 353, 11.4, 30.83280, 32.73980, 4.2163, 32.7398, 30.8328, 166.80, 3.0800, 1459.81, 129.20, 64.6, 3.07, 5.3, 52
2008/03/25, 01:14:22, 193.90, 0.00, 1.90, 2.40, 1026.2, 44.3062200, -52.5425920, , 82.40, 12.53, 82.90, 1026.99, 0.20, 0.0, 27.52, 72.22, 74.7, 351, 11.2, 30.81720, 32.73790, 4.1999, 32.7379, 30.8172, 164.90, 3.0894, 1459.85, 126.80, 56.6, 2.73, 5.1, 52
2008/03/25, 01:15:21, 194.90, 0.00, 1.87, 2.40, 1025.9, 44.3067220, -52.5379430, , 78.60, 12.78, 80.50, 1027.16, 0.00, 0.0, 27.52, 72.09, 74.6, 350, 11.4, 30.80520, 32.73930, 4.1844, 32.7393, 30.8052, 162.40, 3.0948, 1459.87, 122.70, 47.7, 2.40, 5.9, 52
2008/03/25, 01:16:22, 193.70, 0.00, 1.92, 2.40, 1026.2, 44.3072820, -52.5333080, , 79.70, 11.87, 84.10, 1026.76, 0.10, 0.0, 27.52, 72.22, 74.9, 347, 10.6, 30.79550, 32.73660, 4.1756, 32.7366, 30.7955, 161.90, 3.1028, 1459.91, 125.10, 51.8, 2.92, 4.3, 52
2008/03/25, 01:17:22, 192.30, 0.00, 1.76, 2.40, 1026.0, 44.3077480, -52.5286570, , 81.30, 11.70, 82.90, 1026.98, 0.20, 0.0, 27.52, 71.63, 74.0, 347, 11.0, 30.79900, 32.74130, 4.1750, 32.7413, 30.7990, 155.70, 3.1196, 1459.98, 116.80, 48.1, 2.91, 5.0, 52
2008/03/25, 01:18:22, 0.00, 0.00, 1.84, 2.40, 1025.7, 44.3082200, -52.5240120, , 79.10, 12.57, 83.50, 1026.58, 0.10, 0.0, 27.52, 71.48, 73.9, 350, 11.3, 30.85890, 32.74430, 4.2426, 32.7443, 30.8589, 154.80, 3.1452, 1460.10, 127.80, 53.0, 2.91, 5.5, 52
2008/03/25, 01:19:22, 195.50, 0.00, 1.87, 2.40, 1026.3, 44.3086930, -52.5193620, , 78.20, 11.20, 82.50, 1026.91, 0.20, 0.0, 27.52, 71.84, 73.8, 356, 11.1, 30.87960, 32.72260, 4.2889, 32.7226, 30.8796, 159.40, 3.1510, 1460.10, 124.10, 62.4, 3.39, 5.1, 52
2008/03/25, 01:20:21, 191.60, 0.00, 1.84, 2.40, 1026.1, 44.3091330, -52.5146830, , 78.50, 12.67, 82.10, 1027.00, -0.10, 0.0, 27.52, 71.56, 74.3, 355, 11.2, 30.82180, 32.65250, 4.2911, 32.6525, 30.8218, 165.80, 3.1472, 1460.03, 142.60, 57.2, 3.18, 5.0, 52
2008/03/25, 01:21:22, 188.90, 0.00, 1.95, 2.40, 1026.0, 44.3095920, -52.5099920, , 83.00, 12.60, 82.70, 1026.73, -0.10, 0.0, 27.52, 71.79, 73.8, 352, 11.2, 30.73650, 32.55730, 4.2863, 32.5573, 30.7365, 191.80, 3.1233, 1459.78, 135.70, 64.0, 2.79, 5.0, 52
2008/03/25, 01:22:22, 186.00, 0.00, 1.90, 2.40, 1026.0, 44.3100370, -52.5052400, , 82.80, 12.40, 84.10, 1026.73, 0.10, 0.0, 27.52, 72.09, 74.4, 353, 11.8, 30.71730, 32.53260, 4.2886, 32.5326, 30.7173, 226.30, 3.1000, 1459.63, 133.40, 60.5, 2.96, 5.4, 52
2008/03/25, 01:23:22, 186.00, 0.00, 1.92, 2.40, 1025.8, 44.3104780, -52.5004820, , 80.20, 12.37, 83.50, 1026.32, 0.10, 0.0, 27.52, 71.43, 74.0, 355, 11.5, 30.73140, 32.53120, 4.3067, 32.5312, 30.7314, 220.40, 3.0936, 1459.60, 132.60, 61.6, 3.37, 5.4, 52
2008/03/25, 01:24:22, 191.20, 0.00, 1.87, 2.40, 1026.1, 44.3109000, -52.4957300, , 83.20, 13.07, 81.10, 1027.05, -0.10, 0.0, 27.52, 71.81, 73.8, 352, 11.0, 30.77700, 32.53380, 4.3580, 32.5338, 30.7770, 223.80, 3.0911, 1459.59, 134.60, 57.6, 2.86, 5.2, 52
2008/03/25, 01:25:22, 184.00, 0.00, 1.87, 2.40, 1026.1, 44.3113430, -52.4909700, , 83.90, 12.02, 82.00, 1026.69, 0.00, 0.0, 27.52, 71.81, 74.2, 351, 10.6, 30.77500, 32.53060, 4.3589, 32.5306, 30.7750, 221.10, 3.0871, 1459.57, 121.40, 52.7, 2.85, 4.8, 52
2008/03/25, 01:26:22, 187.40, 0.00, 1.92, 2.40, 1026.3, 44.3118180, -52.4862070, , 82.70, 12.14, 82.20, 1027.08, 0.10, 0.0, 27.52, 71.66, 74.7, 351, 11.2, 30.75590, 32.53580, 4.3310, 32.5358, 30.7559, 224.40, 3.0612, 1459.46, 125.00, 52.8, 2.84, 5.1, 52
2008/03/25, 01:27:22, 192.20, 0.00, 1.92, 2.40, 1026.2, 44.3122150, -52.4814080, , 91.00, 13.60, 80.80, 1026.90, 0.10, 0.0, 27.52, 71.99, 74.0, 351, 11.0, 30.72900, 32.53090, 4.3042, 32.5309, 30.7290, 222.90, 3.0476, 1459.41, 91.50, 60.3, 1.79, 4.6, 52
2008/03/25, 01:28:22, 190.70, 0.00, 1.87, 2.40, 1026.4, 44.3126050, -52.4766130, , 87.90, 12.45, 80.80, 1027.04, 0.20, 0.0, 27.52, 71.28, 74.2, 349, 11.2, 30.66890, 32.53350, 4.2304, 32.5335, 30.6689, 235.40, 3.0311, 1459.33, 97.90, 56.2, 2.26, 5.4, 52
2008/03/25, 01:29:22, 193.70, 0.00, 1.92, 2.40, 1026.2, 44.3130230, -52.4718170, , 87.70, 11.97, 81.60, 1027.24, 0.00, 0.0, 27.52, 71.43, 73.9, 351, 10.8, 30.66320, 32.53610, 4.2210, 32.5361, 30.6632, 228.00, 3.0175, 1459.28, 96.70, 55.6, 2.52, 5.0, 52
2008/03/25, 01:30:22, 192.50, 0.00, 1.92, 2.40, 1026.4, 44.3134220, -52.4670030, , 78.90, 12.25, 80.80, 1027.22, -0.10, 0.0, 27.52, 71.30, 73.6, 352, 11.4, 30.68370, 32.53680, 4.2447, 32.5368, 30.6837, 224.40, 3.0034, 1459.22, 125.30, 51.3, 2.58, 5.5, 52
2008/03/25, 01:31:22, 192.60, 0.00, 1.90, 2.40, 1026.1, 44.3138850, -52.4622300, , 81.90, 12.27, 83.00, 1027.08, 0.20, 0.0, 27.52, 71.30, 73.6, 350, 10.8, 30.67710, 32.53210, 4.2415, 32.5321, 30.6771, 221.10, 3.0047, 1459.22, 119.00, 59.8, 2.98, 4.3, 52